Location: Byszew
(52.1813°N, 19.2693°E)
Time: 20:02:01
(UTC+00:00)

CAS-4B - Pass Details

Date: 08 July 2022
Orbit: 522 x 536 km, 43.0° (Epoch: 08 August)

Event Time Altitude Azimuth Distance (km) Brightness Sun altitude
Exits shadow 23:33:59 18° 147° (SSE) 1,316 ? -14.8°
Drops below altitude 10° 23:35:41 10° 125° (SE) 1,756 ? -14.7°
Sets 23:38:16 0° 110° (ESE) 2,646 ? -14.6°
